Погода в Каменке-Днепровской

Украина / Запорожская область     47°29′23″N   34°24′30″E
темп.,
°C
ветер,
м/с
пор.,
м/с
влажн.,
%
обл.,
%
осадки,
мм/ч
давл.,
гПа
погр.,
м
29 июня, ср
ср2900:00+24в586618 0.0 1015243
03:00+23св46775 0.0 1015177
06:00+23св57765 0.0 1014225
09:00+27св68610 0.0 1015665
12:00+30в57512 0.0 1015914
15:00+31в574234 0.0 10131265
18:00+30вюв684715 0.1 1013846
21:00+25юв226758 0.7 101452
30 июня, чт
чт3000:00+24всв45705 0.1 1015155
03:00+22в686958 0.1 1015231
06:00+21вюв57674 0.0 1014229
09:00+25в3349100 0.2 1014530
12:00+22ссв4466100 1.1 1015214
15:00+23св666334 1.3 1014362
18:00+25всв55556 0.0 1014855
21:00+21всв676737 0.0 1015510
1 июля, пт
пт100:00+18св68780 0.0 1015344
03:00+18св68790 0.0 1016316
06:00+18всв79755 0.0 1016359
09:00+22св67531 0.0 1016755
12:00+26св67390 0.0 10161806
15:00+28св56391 0.0 10152313
18:00+28св77372 0.0 10151884
21:00+24св710450 0.0 1017551
2 июля, сб
сб200:00+22св69540 0.0 1018300
03:00+20всв58610 0.0 1019264
06:00+19св56640 0.0 1019244
09:00+23св67490 0.0 1020960
12:00+25всв57370 0.0 10202024
15:00+27св45310 0.0 10202190
18:00+27св45350 0.0 10191740
21:00+24всв56440 0.0 1019352
3 июля, вс
вс300:00+22в34520 0.0 1020149
03:00+20ю11510 0.0 102097
06:00+21ссз23525 0.0 1020151
09:00+24ссз34443 0.0 1019511
12:00+29с45445 0.0 10181495
15:00+30с3444100 0.0 10171177
18:00+29ссв46465 0.0 1017626
21:00+26св59565 0.0 1017254